Location: Sevilla
(37.3933°N, 5.9839°W)
Time: 04:49:52
(UTC+02:00)

Vanguard 3 - Pass Details

Date: 02 July 2024
Orbit: 508 x 3231 km, 33.4° (Epoch: 15 July)

Event Time Altitude Azimuth Distance (km) Brightness Sun altitude
Exits shadow 07:07:26 - 229° (SW) 7,189 11.3 -0.8°
Rises 07:07:34 0° 229° (SW) 7,165 11.3 -0.8°
Reaches altitude 10° 07:12:38 10° 225° (SW) 6,148 11.0 0.0°
Maximum altitude 07:30:46 52° 157° (SSE) 3,193 10.2 3.2°
Drops below altitude 10° 07:43:20 10° 86° (E) 4,403 12.5 5.5°
Sets 07:46:17 0° 81° (E) 5,084 13.1 6.0°
